Tracking 27112 objects as of 27-Mar-2023
HD Live streaming from Space Station
objects crossing your sky now

STARLINK-3549

Track STARLINK-3549 now!
10-day predictions
STARLINK-3549 is classified as:


NORAD ID: 51891
Int'l Code: 2022-022AR
Perigee: 546.0 km
Apogee: 547.8 km
Inclination: 53.2 °
Period: 95.4 minutes
Semi major axis: 6917 km
RCS: Unknown
Launch date: March 3, 2022
Source: United States (US)
Launch site: AIR FORCE EASTERN TEST RANGE (AFETR)
Your satellite tracking list
Your tracking list is empty




NASA's NSSDC Master Catalog

Two Line Element Set (TLE):
1 51891U 22022AR  23085.69336146  .00017789  00000-0  11334-2 0  9994
2 51891  53.2148 162.9208 0001323 111.5872 248.5261 15.08825071 60406
Source of the keplerian elements: AFSPC